Location: Newark
(44.6303°N, 123.0961°W)
Time: 20:27:06
(UTC+00:00)

Envisat - Pass Details

Date: 26 January 2020
Orbit: 764 x 766 km, 98.1° (Epoch: 22 February)

Event Time Altitude Azimuth Distance (km) Brightness Sun altitude
Rises 13:55:43 0° 25° (NNE) 3,242 6.5 -18.1°
Reaches altitude 10° 13:58:29 10° 40° (NE) 2,310 5.9 -17.7°
Maximum altitude 14:02:32 24° 93° (E) 1,564 5.5 -16.9°
Drops below altitude 10° 14:06:33 10° 146° (SE) 2,295 6.1 -16.2°
Sets 14:09:16 0° 160° (SSE) 3,216 6.7 -15.8°
